STARLINK-4377 (53221 NORAD) Tracking and Keplerian Element Data

This shows tracking and keplerian element data for the satellite.

Feedback or suggestion? Click here.




ElementValue
Catalog53221
NameSTARLINK-4377
Epoch Orbit1030
Epoch Day269.86793918
Epoch Year2022
RAAN329.7031
Inclination97.6523
Eccentricity0.0001283
Argument of Perigee103.0686
Mean Anonmoly257.0681
Mean Motion15.01253901
Decay Rate-2.377E-05
L11 53221U 22084AJ 22269.86793918 -.00002377 00000+0 -18055-3 0 9993
L22 53221 97.6523 329.7031 0001283 103.0686 257.0681 15.01253901 10300

Live tracking and technical data element details for STARLINK-4377 (NORAD 53221). STARLINK-4377 can be tracked NOW for your location showing map with azimuth and elevation plus other details from your city location.

Track the satellite on the map from your city or location and see movement details for azimuth, elevation, latitude, longitude, range, height, and movement on the map or in text.







IsCatalogInMostPopularTable: catalog: 53221, numindb: 9
Update: records affected: 1



GetName: 53221 STARLINK-4377

Hit Count: updated at: Thu, 29 Sep 2022 10:11:05 GMT